Location: Bas-Clignon
(44.2000°N, 6.6333°E)
Time: 02:45:11
(UTC+00:00)

SKYMED 2 - Pass Details

Date: 03 February 2023
Orbit: 621 x 623 km, 97.9° (Epoch: 27 March)

Event Time Altitude Azimuth Distance (km) Brightness Sun altitude
Rises 17:54:06 0° 10° (N) 2,918 6.8 -12.6°
Reaches altitude 10° 17:56:18 10° 8° (N) 2,006 6.0 -13.0°
Maximum altitude 18:00:38 71° 286° (WNW) 665 3.9 -13.7°
Drops below altitude 10° 18:04:57 10° 202° (SSW) 1,989 6.6 -14.5°
Sets 18:07:08 0° 200° (SSW) 2,890 7.4 -14.9°
